Kenora, Ontario

4:39 PM CST on January 19, 2018 (GMT -0600)
Kenora

Weather History for CYQK - January, 2014

Change the Weather History Date:

Wednesday, January 1, 2014

  Actual Average Record
Temperature  
Mean Temperature -26 °F -  
Max Temperature -17 °F 8 °F 26 °F (1997)
Min Temperature -35 °F -9 °F -35 °F (2014)
Degree Days  
Heating Degree Days 91    
Moisture  
Dew Point -33 °F    
Average Humidity 69    
Maximum Humidity 76    
Minimum Humidity 54    
Precipitation  
Precipitation 0.00 in 0.04 in - ()
Sea Level Pressure  
Sea Level Pressure 30.60 in    
Wind  
Wind Speed 4 mph ()    
Max Wind Speed 6 mph    
Max Gust Speed -    
Visibility 14.2 miles    
Events Snow    
Averages and records for this station are not official NWS values.
T = Trace of Precipitation, MM = Missing Value Source: Averaged Metar Reports

Daily Weather History Graph

Daily Weather History Graph

Search for Another Location

Airport or City:

Trip Planner

Search our weather history database for the weather conditions in past years. The results will help you decide how hot, cold, wet, or windy it might be!

Date:

Astronomy

Jan. 01, 2014 Rise Set
Actual Time 8:14 AM CST 4:27 PM CST
Civil Twilight 7:37 AM CST 5:05 PM CST
Nautical Twilight 6:55 AM CST 5:46 PM CST
Astronomical Twilight 6:16 AM CST 6:25 PM CST
Moon 7:59 AM CST (1/1) 5:21 PM CST (1/1)
Length of Visible Light 9h 28m
Length of Day
8h 12m
New Moon, 0% of the Moon is Illuminated
Jan 1
New Moon
Jan 7
First Quarter
Jan 15
Full
Jan 23
Last Quarter
Jan 30
New

Hourly Weather History & Observations

Time (CST) Temp. Windchill Dew Point Humidity Pressure Visibility Wind Dir Wind Speed Gust Speed Precip Events Conditions
12:00 AM -30 °F - -36 °F 58% 30.56 in 12 mi West 4.6 mph - - Snow Snow
12:00 AM -29.2 °F -44.0 °F -36.4 °F 68% 30.56 in 12.0 mi West 4.6 mph - N/A   Ice Crystals
1:00 AM -31.0 °F -43.3 °F -38.2 °F 68% 30.56 in 15.0 mi SW 3.5 mph - N/A   Ice Crystals
2:00 AM -29.2 °F - -36.4 °F 68% 30.56 in 15.0 mi Variable 2.3 mph - N/A   Ice Crystals
3:00 AM -31.0 °F -43.3 °F -38.2 °F 68% 30.57 in 15.0 mi NNW 3.5 mph - N/A   Ice Crystals
4:00 AM -31.0 °F -46.1 °F -36.4 °F 75% 30.57 in 15.0 mi North 4.6 mph - N/A   Ice Crystals
5:00 AM -32.8 °F -45.3 °F -40.0 °F 68% 30.58 in 15.0 mi WSW 3.5 mph - N/A   Ice Crystals
6:00 AM -31 °F - -37 °F 54% 30.58 in 15 mi West 2.3 mph - - Snow Snow
6:00 AM -31.0 °F - -38.2 °F 68% 30.58 in 15.0 mi West 2.3 mph - N/A   Ice Crystals
7:00 AM -34.6 °F - -40.0 °F 75% 30.60 in 15.0 mi Calm Calm - N/A   Partly Cloudy
8:00 AM -32.8 °F - -40.0 °F 68% 30.61 in 15.0 mi SW 2.3 mph - N/A   Partly Cloudy
9:00 AM -31.0 °F -46.1 °F -38.2 °F 68% 30.62 in 10.0 mi SSW 4.6 mph - N/A   Scattered Clouds
10:00 AM -31.0 °F -46.1 °F -36.4 °F 75% 30.63 in 15.0 mi SSW 4.6 mph - N/A   Scattered Clouds
11:00 AM -25.6 °F -41.9 °F -32.8 °F 69% 30.65 in 12.0 mi South 5.8 mph - N/A   Scattered Clouds
12:00 PM -22 °F - -28 °F 60% 30.63 in 12 mi SW 5.8 mph - -   Partly Cloudy
12:00 PM -22.0 °F -37.7 °F -27.4 °F 76% 30.63 in 12.0 mi SSW 5.8 mph - N/A   Scattered Clouds
1:00 PM -20.2 °F -35.5 °F -27.4 °F 69% 30.63 in 12.0 mi SSW 5.8 mph - N/A   Partly Cloudy
2:00 PM -18.4 °F -33.4 °F -25.6 °F 70% 30.62 in 15.0 mi WSW 5.8 mph - N/A   Partly Cloudy
3:00 PM -18.4 °F -28.9 °F -23.8 °F 76% 30.61 in 15.0 mi WSW 3.5 mph - N/A   Partly Cloudy
4:00 PM -20.2 °F -30.9 °F -25.6 °F 76% 30.61 in 15.0 mi SW 3.5 mph - N/A   Partly Cloudy
5:00 PM -20.2 °F -30.9 °F -27.4 °F 69% 30.62 in 15.0 mi SW 3.5 mph - N/A   Partly Cloudy
6:00 PM -23 °F - -29 °F 59% 30.61 in 15 mi SW 3.5 mph - -   Scattered Clouds
6:00 PM -22.0 °F -33.0 °F -29.2 °F 69% 30.61 in 15.0 mi WSW 3.5 mph - N/A   Partly Cloudy
7:00 PM -22.0 °F -33.0 °F -29.2 °F 69% 30.61 in 15.0 mi WSW 3.5 mph - N/A   Ice Crystals
8:00 PM -22.0 °F -35.6 °F -29.2 °F 69% 30.62 in 15.0 mi SSW 4.6 mph - N/A   Ice Crystals
9:00 PM -23.8 °F -35.0 °F -29.2 °F 76% 30.60 in 15.0 mi SW 3.5 mph - N/A   Ice Crystals
10:00 PM -23.8 °F -37.7 °F -29.2 °F 76% 30.59 in 15.0 mi SSW 4.6 mph - N/A   Ice Crystals
11:00 PM -27.4 °F -44.1 °F -32.8 °F 75% 30.60 in 15.0 mi SW 5.8 mph - N/A   Ice Crystals